DW6848 Weather Reports


time (UTC)temp
C
wind
direction
speed
KPH
gust
KPH
rain 1hr
cm
rain 24hr
cm
rain mn
cm
humidity
%
barometer
mb
20260510180021 27 183 3.2 8.0 0.00 0.00 0.00 56 1015.8
20260510174520 27 246 1.6 6.4 0.00 0.00 0.00 59 1016.1
20260510173021 27 257 3.2 6.4 0.00 0.00 0.00 57 1016.3
20260510171522 26 34 0.0 8.0 0.00 0.00 0.00 64 1016.5
20260510170020 26 181 1.6 4.8 0.00 0.00 0.00 67 1016.7
20260510164523 26 171 1.6 6.4 0.00 0.00 0.00 62 1016.7
20260510163022 26 1 0.0 6.4 0.00 0.00 0.00 68 1016.7
20260510161525 25 238 0.0 4.8 0.00 0.00 0.00 72 1016.8
20260510160030 25 315 0.0 6.4 0.00 0.00 0.00 73 1016.7
20260510154523 24 204 0.0 4.8 0.00 0.00 0.00 76 1016.6
20260510153020 23 183 0.0 3.2 0.00 0.00 0.00 77 1016.6
20260510151524 23 236 0.0 3.2 0.00 0.00 0.00 82 1016.8
20260510150016 22 233 1.6 4.8 0.00 0.00 0.00 85 1016.8
20260510144515 22 274 0.0 8.0 0.00 0.00 0.00 86 1016.7
20260510143017 21 164 0.0 6.4 0.00 0.00 0.00 87 1016.6
20260510141518 21 219 1.6 6.4 0.00 0.00 0.00 89 1016.7
20260510140018 21 217 3.2 6.4 0.00 0.00 0.00 89 1016.7
20260510134517 20 237 1.6 6.4 0.00 0.00 0.00 90 1016.3
20260510133017 20 202 1.6 4.8 0.00 0.00 0.00 91 1016.2
20260510131520 20 178 0.0 0.0 0.00 0.00 0.00 91 1016.3
20260510130025 19 179 0.0 1.6 0.00 0.00 0.00 92 1016.1
20260510124519 18 179 0.0 3.2 0.00 0.00 0.00 94 1016.1
20260510123022 18 220 0.0 4.8 0.00 0.00 0.00 95 1016.0
20260510121520 17 158 0.0 0.0 0.00 0.00 0.00 98 1016.0
20260510120022 17 158 0.0 0.0 0.00 0.00 0.00 99 1015.8
20260510114530 16 158 0.0 0.0 0.00 0.00 0.00 98 1015.8
20260510113032 16 158 0.0 0.0 0.00 0.00 0.00 97 1015.5
20260510111531 16 158 0.0 0.0 0.00 0.00 0.00 97 1015.5
20260510110033 16 158 0.0 0.0 0.00 0.00 0.00 97 1015.3
20260510104523 16 158 0.0 0.0 0.00 0.00 0.00 97 1015.0
20260510103023 16 158 0.0 0.0 0.00 0.00 0.00 96 1014.8
20260510101522 16 158 0.0 0.0 0.00 0.00 0.00 96 1014.6
20260510100025 16 158 0.0 0.0 0.00 0.00 0.00 95 1014.5
20260510094531 16 158 0.0 0.0 0.00 0.00 0.00 95 1014.3
20260510093021 16 158 0.0 0.0 0.00 0.00 0.00 95 1014.2
20260510091520 16 158 0.0 0.0 0.00 0.00 0.00 94 1013.9
20260510090022 17 158 0.0 0.0 0.00 0.00 0.00 94 1013.9
20260510084525 17 158 0.0 0.0 0.00 0.00 0.00 93 1013.9
20260510083020 17 158 0.0 0.0 0.00 0.00 0.00 92 1013.6
20260510081519 17 158 0.0 0.0 0.00 0.00 0.00 91 1013.6
20260510080027 17 158 0.0 0.0 0.00 0.00 0.00 92 1013.7
20260510074527 18 158 0.0 0.0 0.00 0.00 0.00 91 1013.7
20260510073018 18 158 0.0 0.0 0.00 0.00 0.00 90 1013.6
20260510071526 18 158 0.0 1.6 0.00 0.00 0.00 90 1013.6
20260510070024 18 158 0.0 0.0 0.00 0.00 0.00 89 1013.8
20260510064521 18 158 0.0 0.0 0.00 0.00 0.00 88 1013.8
20260510063023 18 158 0.0 0.0 0.00 0.00 0.00 87 1013.6
20260510061523 18 158 0.0 0.0 0.00 0.00 0.00 86 1013.3
20260510060007 18 157 0.0 0.0 0.00 0.00 0.00 85 1013.2
20260510054526 18 158 0.0 0.0 0.00 0.00 0.00 84 1013.3
20260510053005 18 158 0.0 0.0 0.00 0.00 0.00 81 1013.5
20260510051511 18 158 0.0 3.2 0.00 0.00 0.00 81 1013.3
20260510050009 18 157 0.0 0.0 0.00 0.00 0.00 80 1013.2
20260510044512 18 157 0.0 0.0 0.00 0.00 0.00 80 1013.2
20260510043010 18 157 0.0 0.0 0.00 0.00 0.00 79 1013.1
20260510041509 18 157 0.0 0.0 0.00 0.00 0.00 76 1013.2
20260510040011 19 157 0.0 9.7 0.00 0.00 0.00 76 1013.2
20260510034511 19 39 0.0 0.0 0.00 0.00 0.00 74 1013.2
20260510033014 20 39 0.0 0.0 0.00 0.00 0.00 73 1013.2
20260510031514 20 39 0.0 0.0 0.00 0.00 0.00 70 1013.2
20260510030011 20 39 0.0 0.0 0.00 0.00 0.00 70 1013.1
20260510024517 21 39 0.0 0.0 0.00 0.00 0.00 68 1013.1
20260510023014 21 39 0.0 0.0 0.00 0.00 0.00 67 1013.0
20260510021518 21 39 0.0 0.0 0.00 0.00 0.00 66 1012.9
20260510020017 21 39 0.0 0.0 0.00 0.00 0.00 66 1012.7
20260510014517 21 39 0.0 0.0 0.00 0.00 0.00 65 1012.4
20260510013017 22 39 0.0 1.6 0.00 0.00 0.00 64 1012.1
20260510011516 22 39 0.0 1.6 0.00 0.00 0.00 62 1011.7
20260510010016 23 39 0.0 0.0 0.00 0.00 0.00 59 1011.4
20260510004519 24 39 0.0 0.0 0.00 0.00 0.00 55 1011.3
20260510003018 25 39 0.0 0.0 0.00 0.00 0.00 51 1010.9
20260510001533 26 39 0.0 1.6 0.00 0.00 0.00 46 1010.9
20260510000019 26 36 0.0 1.6 0.00 0.00 0.00 46 1010.8
20260509234518 27 36 0.0 4.8 0.00 0.00 0.00 44 1010.5
20260509233020 27 37 0.0 4.8 0.00 0.00 0.00 44 1010.6
20260509231519 28 36 0.0 6.4 0.00 0.00 0.00 40 1010.5
20260509230021 28 314 1.6 4.8 0.00 0.00 0.00 41 1010.4
20260509224522 27 12 0.0 4.8 0.00 0.00 0.00 40 1010.3
20260509223021 27 42 1.6 8.0 0.00 0.00 0.00 41 1010.3
20260509221527 28 327 1.6 6.4 0.00 0.00 0.00 41 1010.1
20260509220026 28 152 0.0 4.8 0.00 0.00 0.00 41 1010.3
20260509214534 29 356 3.2 4.8 0.00 0.00 0.00 40 1010.4
20260509213025 28 214 0.0 6.4 0.00 0.00 0.00 42 1010.4
20260509211526 28 165 1.6 6.4 0.00 0.00 0.00 42 1010.6
20260509210009 28 14 1.6 4.8 0.00 0.00 0.00 38 1010.5
20260509204508 27 39 1.6 6.4 0.00 0.00 0.00 43 1010.8
20260509203025 27 57 1.6 6.4 0.00 0.00 0.00 40 1010.8
20260509201508 27 30 0.0 6.4 0.00 0.00 0.00 39 1010.9
20260509200012 27 68 0.0 11.3 0.00 0.00 0.00 43 1011.0
20260509194512 27 203 1.6 8.0 0.00 0.00 0.00 42 1010.9
20260509193013 27 214 1.6 6.4 0.00 0.00 0.00 46 1011.1
20260509191514 27 240 3.2 6.4 0.00 0.00 0.00 44 1011.2
20260509190016 27 160 0.0 4.8 0.00 0.00 0.00 44 1011.1
20260509184514 26 252 3.2 9.7 0.00 0.00 0.00 46 1011.2
20260509183013 27 243 0.0 11.3 0.00 0.00 0.00 49 1011.3
20260509181517 27 54 1.6 6.4 0.00 0.00 0.00 47 1011.5